Location: Krakow
(50.0830°N, 19.9170°E)
Time: 04:33:54
(UTC+02:00)

Tiros 1 - Pass Details

Date: 13 February 2023
Orbit: 627 x 662 km, 48.4° (Epoch: 25 March)

Event Time Altitude Azimuth Distance (km) Brightness Sun altitude
Rises 21:44:23 0° 250° (WSW) 2,907 - -44.6°
Reaches altitude 10° 21:46:42 10° 247° (WSW) 2,000 - -44.9°
Maximum altitude 21:51:14 62° 168° (SSE) 707 - -45.4°
Drops below altitude 10° 21:55:48 10° 87° (E) 2,007 - -45.9°
Sets 21:58:08 0° 84° (E) 2,918 - -46.2°
